sat.trackr.live / text

‹ back to catalog

CONNECTA T1.2

NORAD 55012 · 2023-001D

PAYLOAD ACTIVE UNKNOWN

§ Identity

Operator
Country
TURK
Launch date
2023-01-03
Launch site
AFETR
Launch vehicle
Mass (kg)
RCS (m²)

External: N2YO · Heavens-Above · Gunter

§ Orbital elements

Epoch: 2026-09-21T17:27:14.554656Z

Period
92.39 min
Inclination
97.3146°
Eccentricity
0.0005681
Mean motion
15.58593614 rev/d
Perigee alt
387.9 km
Apogee alt
395.6 km
Semi-major
6,769.9 km
B*
5.5316e-4
RAAN
337.6029°
Arg perigee
106.5805°
Mean anomaly
253.6075°
Rev number
20,754

§ Raw data

CONNECTA T1.21 55012U 23001D   26264.72725179  .00042442  00000+0  55316-3 0  99972 55012  97.3146 337.6029 0005681 106.5805 253.6075 15.58593614207543

JSON: /api/v1/satellites/55012 · /tle

For live sub-satellite position, see the globe view (requires WebGL).

§ Visibility from observer

Set your observer location to see the next 7 days of passes ≥ 10°. The values pass through the URL so the page stays shareable.

No JS? Fill the form by hand. The geolocation button needs JavaScript.

§ Radio — SatNOGS DB

ModeDescriptionDownlinkUplink
GMSK Mode S - GMSK 115k2 TLM 2.223 GHz
GFSK Mode U - GFSK 4k8 AX.25 TLM 401.525 MHz
GFSK Mode U - GFSK 1k2 AX.25 TLM (inactive) 401.525 MHz
GMSK Mode U - GMSK 9k6 AX.25 TLM (inactive) 401.525 MHz

4 transmitters · refreshed weekly from db.satnogs.org